Regional Weather Roundup
Issued by NWS

Home | Current Version | Previous Version | Graphics & Text | Print | Product List | Glossary On
Versions: 1 2 3 4 5 6 7 8 9 10 11 12 13 14 15 16 17 18 19 20 21 22 23 24 25 26 27 28 29 30 31 32 33 34 35 36 37 38 39 40 41 42 43 44 45 46 47 48 49 50
000
ASUS45 KSLC 030610
RWRUT

UTAH REGIONAL WEATHER ROUNDUP
NATIONAL WEATHER SERVICE SALT LAKE CITY UT
1200 AM MDT MON AUG 03 2015

UTZ001>011-023>025-030700-

NORTHERN UTAH

CITY           SKY/WX    TMP DP  RH WIND       PRES   REMARKS
BRIGHAM CITY   CLOUDY    77  45  31 CALM      30.00R
HILL AFB       CLOUDY    75  50  42 S15       30.02R
LOGAN          CLEAR     75  45  34 VRB3      29.98R
OGDEN          CLOUDY    75  50  41 SW5       29.98S
PROVO AIRPORT  CLOUDY    70  52  52 E3        30.07R
SALT LAKE CITY CLOUDY    76  52  43 S12       29.99R
VERNAL         LGT RAIN  63  57  81 NW3       30.19R
WENDOVER       CLOUDY    82  41  23 W12       29.94S
HEBER CITY     CLOUDY    70  45  40 CALM      30.13R
WEST JORDAN    MOCLDY    72  54  53 S21G33    30.03R

$$

UTZ012>022-026-027-030700-

SOUTHERN/CENTRAL UTAH

CITY           SKY/WX    TMP DP  RH WIND       PRES   REMARKS
BLANDING       MOCLDY    63  61  94 CALM      30.23S
BRYCE CANYON   CLEAR     50  48  93 W8        30.27S
CEDAR CITY     PTCLDY    63  47  55 CALM      30.11S
DELTA          CLOUDY    65  58  78 NW3       30.09F
HANKSVILLE     MOCLDY    64  63  94 S3        30.08R
MILFORD        MOCLDY    69  49  48 W7        30.06S
MOAB/CYNLANDS  MOCLDY    64  62  93 CALM      30.05F
PRICE          CLOUDY    65  56  72 NE6       30.13F
ST GEORGE      CLOUDY    82  46  28 E14       29.91R
KANAB          CLEAR     66  55  68 N10       30.14F

$$

REGIONAL REPORTS     COLORADO/ARIZONA

CITY           SKY/WX    TMP DP  RH WIND       PRES   REMARKS
CRAIG, CO      CLOUDY    60  50  70 CALM      30.18S
GRAND JUNCTION CLOUDY    66  56  70 E9        30.10S
RIFLE          LGT RAIN  62  57  83 CALM      30.19F
MONTROSE       CLOUDY    62  60  93 SE5       30.17F
CORTEZ         MOCLDY    64  60  87 CALM      30.18F
PAGE, AZ       CLEAR     72  57  59 NW6       30.05S
GRAND CANYON   CLEAR     54  50  86 CALM      30.23R
KINGMAN        CLEAR     77  45  32 VRB6      29.95S
FLAGSTAFF      CLEAR     54  52  93 CALM      30.26R

$$

REGIONAL REPORTS    NEVADA/IDAHO/WYOMING

CITY           SKY/WX    TMP DP  RH WIND       PRES   REMARKS
LAS VEGAS, NV  CLEAR     92  42  17 SW8       29.77F
ELY            MOCLDY    62  42  47 S8        30.15F
ELKO           CLOUDY    71  47  42 CALM      30.06S
POCATELLO, ID  CLEAR     74  38  27 SW5       29.93S
BURLEY         MOCLDY    66  51  58 CALM      29.89R
EVANSTON, WY   MOCLDY    65  42  43 S13       30.18S
ROCK SPRINGS   CLOUDY    67  46  47 S17G29    30.14F
KEMMERER       CLOUDY    68  37  32 S6        30.17S

$$



USA.gov is the U.S. government's official web portal to all federal, state and local government web resources and services.